Regional Weather Roundup
Issued by NWS Green Bay, WI

Home | Current Version | Previous Version | Text Only | Print | Product List | Glossary On
Versions: 1 2 3 4 5 6 7 8 9 10 11 12 13 14 15 16 17 18 19 20 21 22 23 24 25 26 27 28 29 30 31 32 33 34 35 36 37 38 39 40 41 42 43 44 45 46 47 48 49 50
000
ASUS43 KGRB 210400
RWRGRB

NORTH-CENTRAL AND NORTHEAST WISCONSIN REGIONAL WEATHER ROUNDUP
NATIONAL WEATHER SERVICE GREEN BAY WI
1000 PM CST MON FEB 20 2017

WIZ005-009-010>012-018-019-210500-
NORTH CENTRAL WISCONSIN

CITY           SKY/WX    TMP DP  RH WIND       PRES   REMARKS
IRONWOOD       MOCLDY    49  47  93 S13G21    29.63F
MANITOWISH WTR NOT AVBL
ARBOR VITAE    NOT AVBL
EAGLE RIVER    NOT AVBL
LAND O LAKES   LGT RAIN  46  46  99 S9        29.74F
RHINELANDER    LGT RAIN  48  48 100 S9        29.75F FOG
PHILLIPS       CLOUDY    48  48 100 S10       29.68F
ANTIGO         NOT AVBL
TOMAHAWK       NOT AVBL
MERRILL        NOT AVBL
$$

WIZ013-073-210500-
NORTHEAST WISCONSIN

CITY           SKY/WX    TMP DP  RH WIND       PRES   REMARKS
IRON MOUNTAIN  LGT RAIN  42  39  89 S13       29.79F FOG
MARINETTE      LGT RAIN  46  40  79 S23G32    29.81F
OCONTO         CLOUDY    44  40  86 S12G17    29.83F
$$

WIZ017-030-035>037-045-210500-
CENTRAL WISCONSIN

CITY           SKY/WX    TMP DP  RH WIND       PRES   REMARKS
MEDFORD        NOT AVBL
WAUSAU         LGT RAIN  47  47 100 S8        29.76F VSB 1/4
MOSINEE        RAIN      46  46 100 S7        29.79F VSB 1/4
MARSHFIELD     FOG       49  48  97 S9        29.74F VSB 1/4
WISC RAPIDS    LGT RAIN  54  54 100 SW8       29.80F FOG
STEVENS POINT  NOT AVBL
WAUPACA        LGT RAIN  51  49  94 S6        29.82F
SHAWANO        RAIN      49  47  90 CALM      29.83R
CLINTONVILLE   RAIN      46  45  93 SW6       29.83R
WAUTOMA        LGT RAIN  52  51  97 S6        29.83F FOG
$$

WIZ038-039-048-051-210500-
FOX VALLEY

CITY           SKY/WX    TMP DP  RH WIND       PRES   REMARKS
NWS GREEN BAY  RAIN      52  46  80 S16G25    29.82F
APPLETON       DRIZZLE   48  43  81 S14       29.82S
OSHKOSH        LGT RAIN  52  46  80 SW12      29.84R
FOND DU LAC    LGT RAIN  55  46  71 S15       29.84R
$$

WIZ022-050-052-210500-
EAST CENTRAL WISCONSIN

CITY           SKY/WX    TMP DP  RH WIND       PRES   REMARKS
EPHRAIM        NOT AVBL
WASHINGTON ISL RAIN      43  37  78 S10G20    29.83F
STURGEON BAY   LGT RAIN  46  40  79 S22G33    29.84F
MANITOWOC      NOT AVBL
SHEBOYGAN      LGT RAIN  48  40  73 S16G23    29.87F
$$

LMZ563-521-522-541>543-210500-
LAKESHORE

STATION/POSITION TIME  TEMP    WIND        PRES    VSBY  WAVE
                       AIR SEA DIR/SP/G                  HT/PER
                 (UTC) (F)     (DEG/KT/KT) (MB)    (MI)  (FT/S)
SHEBOYGAN LKSHOR 0300   41     180/ 14/ 14 1012.6F
KEWAUNEE LKSHORE 0330   43     190/ 14/ 17 1011.5F
NORTHPORT PIER   0340   43     150/ 15/ 21 1010.8F
SISTER BAY LKSHO 0305   44     150/ 20/ 28   N/A
CHAMBERS ISLAND  0340   47     130/ 13/ 24 1009.8F
MENOMINEE LKSHOR 0330   41     170/ 10/ 16 1009.4F
$$




USA.gov is the U.S. government's official web portal to all federal, state and local government web resources and services.